Location: Arthez
(43.0833°N, 0.2500°W)
Time: 23:43:58
(UTC+00:00)

Orbus 7S? - Pass Details

Date: 23 October 2021
Orbit: 328 x 6409 km, 56.9° (Epoch: 01 November)

Event Time Altitude Azimuth Distance (km) Brightness Sun altitude
Rises 19:07:00 0° 310° (NW) 5,514 9.3 -22.8°
Reaches altitude 10° 19:11:47 10° 313° (NW) 3,597 8.1 -23.7°
Enters shadow 19:19:13 68° 28° (NNE) 769 3.8 -25.1°
